TimeCST,TemperatureF,Dew PointF,Humidity,Sea Level PressureIn,VisibilityMPH,Wind Direction,Wind SpeedMPH,Gust SpeedMPH,PrecipitationIn,Events,Conditions,WindDirDegrees,DateUTC
12:53 AM,39.0,35.1,86,29.99,10.0,South,6.9,-,N/A,,Clear,190,2012-11-30 06:53:00
1:53 AM,37.0,34.0,89,29.99,9.0,SW,5.8,-,N/A,,Clear,220,2012-11-30 07:53:00
2:53 AM,36.0,33.1,89,29.99,7.0,South,6.9,-,N/A,,Clear,190,2012-11-30 08:53:00
3:53 AM,35.1,33.1,92,29.99,7.0,SSW,8.1,-,N/A,,Clear,210,2012-11-30 09:53:00
4:53 AM,35.1,33.1,92,29.99,7.0,SSW,9.2,-,N/A,,Clear,200,2012-11-30 10:53:00
5:53 AM,33.1,30.9,92,30.01,4.0,SSW,6.9,-,N/A,,Clear,200,2012-11-30 11:53:00
6:33 AM,32.0,30.2,93,30.00,2.5,SW,5.8,-,N/A,,Clear,220,2012-11-30 12:33:00
6:53 AM,32.0,30.9,96,30.03,2.5,SW,6.9,-,N/A,,Clear,230,2012-11-30 12:53:00
7:21 AM,33.8,30.2,87,30.01,3.0,WSW,6.9,-,N/A,,Clear,250,2012-11-30 13:21:00
7:53 AM,33.1,30.9,92,30.04,5.0,West,8.1,-,N/A,,Clear,260,2012-11-30 13:53:00
8:53 AM,36.0,32.0,86,30.05,6.0,West,8.1,-,N/A,,Clear,270,2012-11-30 14:53:00
9:53 AM,39.9,34.0,79,30.08,8.0,WNW,8.1,-,N/A,,Clear,300,2012-11-30 15:53:00
10:53 AM,43.0,35.1,74,30.08,8.0,WNW,5.8,-,N/A,,Clear,300,2012-11-30 16:53:00
11:53 AM,48.0,35.1,61,30.06,9.0,Calm,Calm,-,N/A,,Clear,0,2012-11-30 17:53:00
12:53 PM,51.1,36.0,56,30.05,9.0,West,4.6,-,N/A,,Clear,270,2012-11-30 18:53:00
1:53 PM,52.0,36.0,54,30.06,8.0,West,3.5,-,N/A,,Clear,280,2012-11-30 19:53:00
2:53 PM,52.0,36.0,54,30.05,9.0,WNW,3.5,-,N/A,,Clear,290,2012-11-30 20:53:00
3:53 PM,51.1,36.0,56,30.05,8.0,Calm,Calm,-,N/A,,Clear,0,2012-11-30 21:53:00
4:53 PM,46.9,35.1,63,30.06,8.0,ENE,3.5,-,N/A,,Clear,60,2012-11-30 22:53:00
5:53 PM,45.0,35.1,68,30.07,8.0,ENE,3.5,-,N/A,,Clear,60,2012-11-30 23:53:00
6:53 PM,44.1,35.1,71,30.08,9.0,ENE,3.5,-,N/A,,Clear,70,2012-12-01 00:53:00
7:53 PM,43.0,34.0,71,30.08,9.0,East,4.6,-,N/A,,Clear,80,2012-12-01 01:53:00
8:53 PM,42.1,34.0,73,30.05,8.0,East,5.8,-,N/A,,Clear,80,2012-12-01 02:53:00
9:53 PM,39.9,34.0,79,30.04,8.0,ESE,4.6,-,N/A,,Clear,120,2012-12-01 03:53:00
10:53 PM,41.0,34.0,76,30.05,8.0,ESE,4.6,-,N/A,,Clear,110,2012-12-01 04:53:00
11:53 PM,41.0,34.0,76,30.03,8.0,SE,4.6,-,N/A,,Clear,130,2012-12-01 05:53:00